Regional Weather Roundup
Issued by NWS Newport/Morehead, NC

Current Version | Previous Version | Text Only | Print | Product List | Glossary On
Versions: 1 2 3 4 5 6 7 8 9 10 11 12 13 14 15 16 17 18 19 20 21 22 23 24 25 26 27 28 29 30 31 32 33 34 35 36 37 38 39 40 41 42 43 44 45 46 47 48 49 50
000
ASUS42 KMHX 290025
RWRMHX
WEATHER ROUNDUP FOR EASTERN NORTH CAROLINA
NATIONAL WEATHER SERVICE NEWPORT/MOREHEAD CITY NC
800 PM EDT WED JUN 28 2017

NOTE: "FAIR" INDICATES FEW OR NO CLOUDS BELOW 12,000 FEET
WITH NO SIGNIFICANT WEATHER AND/OR OBSTRUCTIONS TO VISIBILITY

NCZ015>017-031-032-045>047-102-103-290100-
NORTH COAST

CITY           SKY/WX    TMP DP  RH WIND       PRES   REMARKS
EDENTON        CLEAR     75  63  66 CALM      30.19S
ELIZABETH CITY CLEAR     73  59  61 E10       30.19S
KITTY HAWK     CLEAR     71  58  62 E6        30.19S
MANTEO         CLEAR     72  59  64 E10       30.20S

$$

NCZ045>047-081-094-103-104-290100-
CENTRAL COAST

CITY           SKY/WX    TMP DP  RH WIND       PRES   REMARKS
FRISCO         NOT AVBL

$$

NCZ095-097-098-100-101-290100-
SOUTHERN COAST

CITY           SKY/WX    TMP DP  RH WIND       PRES   REMARKS
BEAUFORT       CLEAR     78  56  46 E6        30.18R
CEDAR ISLAND   NOT AVBL
JACKSONVILLE   CLEAR     77  61  57 SE9       30.17R
PINEY ISLAND   CLEAR    N/A N/A N/A E7        30.18S
WILMINGTON     CLEAR     79  58  48 E6        30.17R


$$

NCZ011>013-027>030-043-044-078>080-089-090>093-098-290100-
COASTAL PLAIN

CITY           SKY/WX    TMP DP  RH WIND       PRES   REMARKS
AHOSKIE          N/A     72  59  64 CALM      30.17S
CLINTON        CLEAR     79  57  47 CALM      30.17S
ELIZABETHTOWN  NOT AVBL
GOLDSBORO      CLEAR     81  55  40 CALM      30.15S
GREENVILLE     CLEAR     81  54  39 E3        30.18S
HAVELOCK       CLEAR     78  60  53 E9        30.18S
KENANSVILLE    CLEAR     75  59  57 CALM      30.17S
KINSTON        CLEAR     81  54  39 E3        30.18R
NEW BERN       CLEAR     78  60  53 E5        30.19R
RICHLANDS      CLEAR     78  62  57 SE6       30.18R
ROCKY MOUNT    CLEAR     76  60  57 CALM      30.17S
WASHINGTON     MOCLDY   N/A N/A N/A E7        30.18S
WHITEVILLE     CLEAR     81  59  47 S6        30.16R

$$

AMZ130-135-150-152-154-156-158-170-250-252-270-ANZ085-086-088-633-658-670-290100-
MARINE OBSERVATIONS

STATION/POSITION TIME  TEMP    WIND        PRES    WAVE   SWELL
                       AIR SEA DIR/SP/G            HT/PER HT/PER
                 (UTC) (F)     (DEG/KT/KT) (MB)    (FT/S) (FT/S)
CHESAPEAKE LIGHT NOT AVBL
64 E VA BEACH    2350   71 74  100/  8/ 10 1023.1    2/ 5   2/ 5
DUCK             0000   72 75   90/ 12/ 13 1022.0
2 E DUCK         NOT AVBL
OREGON INLET     0000   72 76   70/  9/ 13 1022.4
13E OREGON INLT  2348      74                N/A     3/ 5   2/ 5
HATTERAS CG      0000   75 78   80/  7/ 10 1022.2
DIAMOND BUOY     2350   78 83   40/ 12/ 16 1022.0    2/ 6   2/ 7
CAPE LOOKOUT     0000   79      80/ 11/ 13 1021.7
BEAUFORT LAB     0000   79 80  100/  8/ 10 1021.3
30 SE NEW RVR IN NOT AVBL
30 SE NEW RVR IN 0013      81                N/A     3/ 8
27 SE WRIGHTSVLE NOT AVBL
5 SE WRIGHTSVLE  NOT AVBL
225 S CAPE HAT   2350   80 81   60/ 14/ 16 1020.4    3/ 5   2/ 7
41 SE CHARLESTON 0000   81 80   70/ 16/ 19 1020.5

$$




USA.gov is the U.S. government's official web portal to all federal, state and local government web resources and services.